Regional Weather Roundup
Issued by NWS

Home | Current Version | Previous Version | Graphics & Text | Print | Product List | Glossary On
Versions: 1 2 3 4 5 6 7 8 9 10 11 12 13 14 15 16 17 18 19 20 21 22 23 24 25 26 27 28 29 30 31 32 33 34 35 36 37 38 39 40 41 42 43 44 45 46 47 48 49 50
000
ASUS43 KDTX 271101
RWRMI
MICHIGAN HOURLY REGIONAL WEATHER ROUNDUP
NATIONAL WEATHER SERVICE DETROIT/PONTIAC MI
700 AM EDT TUE SEP 27 2016

NOTE: "FAIR" INDICATES FEW OR NO CLOUDS BELOW 12,000 FEET WITH NO
SIGNIFICANT WEATHER AND/OR OBSTRUCTION TO VISIBILITY.

MIZ047>049-052>055-059>063-066>070-074>076-081>083-271200-
SOUTHEAST LOWER MICHIGAN

CITY           SKY/WX    TMP DP  RH WIND       PRES   REMARKS
ADRIAN         CLEAR     44  41  89 SW5       29.85F
ALMA           MOCLDY    50  45  83 SW8       29.73F
ANN ARBOR      CLEAR     46  39  76 S6        29.81F
BAD AXE        PTCLDY    49  42  77 S12       29.73S
CARO           CLEAR     47  42  84 S6        29.73S
DETROIT CITY   CLEAR     52  40  63 SW13      29.82F
DETROIT        CLEAR     50  41  71 S12       29.83F
FLINT          CLEAR     51  40  65 SW10      29.77F
GROSSE ILE     CLEAR     53  39  59 SW8G16    29.82F
HILLSDALE      CLEAR     46  37  71 S7        29.82F
HOWELL         CLEAR     51  40  66 SW8       29.78F

CITY           SKY/WX    TMP DP  RH WIND       PRES   REMARKS
JACKSON        CLEAR     50  39  66 SW8       29.80F
LAMBERTVILLE   CLEAR     54  39  58 SW6       29.85S
LANSING        CLEAR     52  40  63 SW12      29.77F
LAPEER         FAIR      50  41  69 SW8       29.77S
MASON          CLEAR     49  40  69 CALM      29.78F
MONROE         CLEAR     51  40  66 SW6       29.83F
MT. CLEMENS    CLEAR     53  40  62 SW12      29.78S
PONTIAC        PTCLDY    52  40  63 SW7       29.78F
PORT HURON     CLEAR     46  41  81 S3        29.79S
TRI CITIES     PTCLDY    51  43  74 SW12      29.73S
MIDLAND        FAIR      48  42  81 S5        29.71S
TROY           CLEAR     52  38  60 SW8       29.82F
SAGINAW HB     PTCLDY    50  43  76 SW9       29.73R
$$
MIZ043>046-050>051-056>058-064>065-071>073-077>080-271200-
SOUTHWEST LOWER MICHIGAN

CITY           SKY/WX    TMP DP  RH WIND       PRES   REMARKS
BATTLE CREEK   CLEAR     50  40  68 SW12      29.80S
BENTON HARBOR  CLEAR     62  42  47 W22G29    29.80S
BIG RAPIDS     CLEAR     50  44  78 SW6       29.69F
COLDWATER      CLEAR     49  38  65 SW8       29.82F
FREMONT        FAIR      52  38  59 SW6       29.70F
HOLLAND        CLEAR     60  43  53 W14G21    29.75F
GRAND RAPIDS   PTCLDY    49  42  77 S12       29.74F
IONIA          FAIR      50  41  72 S12       29.74F
KALAMAZOO      CLEAR     51  39  63 SW12      29.81S
LUDINGTON      CLOUDY    58  46  63 W14G22    29.67F
MARSHALL       CLEAR     50  39  67 SW6       29.79F
MOUNT PLEASANT PTCLDY    51  43  73 SW6       29.70F
MUSKEGON       PTCLDY    60  42  51 W18G26    29.72F
SOUTH HAVEN    CLEAR     63  45  52 W15G23    29.78S
$$
MIZ016>042-271200-
NORTHERN LOWER MICHIGAN

CITY           SKY/WX    TMP DP  RH WIND       PRES   REMARKS
ALPENA         CLOUDY    52  42  69 S10       29.63S
BEAVER ISLAND  RAIN      53  49  88 W15G23    29.54S
BELLAIRE       CLOUDY    54  49  82 S5G16     29.60F
CADILLAC       CLOUDY    49  43  79 SW9       29.65F
CHARLEVOIX     CLOUDY    57  47  68 W21       29.59S
FRANKFORT      CLOUDY    58  44  59 W14G31    29.63S
GAYLORD        CLOUDY    50  45  83 SW12      29.60F
GRAYLING       CLOUDY    52  44  75 S8        29.64S
HARBOR SPRINGS CLOUDY    54  51  88 S13G18    29.55F
HOUGHTON LAKE  CLOUDY    51  42  71 SW12      29.66F
MANISTEE       CLOUDY    58  45  62 W15G22    29.64F
OSCODA         PTCLDY    49  42  76 SW9       29.66F
PELLSTON       CLOUDY    53  49  86 S5        29.55F
ROGERS CITY    CLOUDY    52  45  78 S10       29.60S
TRAVERSE CITY  CLOUDY    56  46  69 VRB5      29.60F
$$
MIZ007>008-015-271200-
EASTERN UPPER MICHIGAN

CITY           SKY/WX    TMP DP  RH WIND       PRES   REMARKS
KINROSS        CLOUDY    51  47  86 SW6       29.52F
MACKINAC ISLAN LGT RAIN  55  49  82 W15G26    29.53S
NEWBERRY       LGT RAIN  50  48  93 SW12      29.50F
S. S. MARIE    CLOUDY    51  47  86 SW7       29.51F
MUNISING         N/A     52  47  83 SW7       29.49F
$$
MIZ004>006-011>014-085-271200-
CENTRAL UPPER MICHIGAN

CITY           SKY/WX    TMP DP  RH WIND       PRES   REMARKS
MANISTIQUE     CLOUDY    53  46  77 W9        29.52F
ESCANABA       CLOUDY    53  46  77 W14       29.55F
MENOMINEE      LGT RAIN  53  45  74 W6        29.61F
SAWYER-GWINN   CLOUDY    48  46  93 W12       29.50F
$$
MIZ001>003-009>011-084-271200-
WESTERN UPPER MICHIGAN

CITY           SKY/WX    TMP DP  RH WIND       PRES   REMARKS
IRON MOUNTAIN  CLOUDY    50  45  83 W10       29.56S
HOUGHTON       LGT RAIN  50  47  89 NW18G24   29.47S FOG
COPPER HARBOR    N/A     52  51  97 N20G29    29.43S
IRONWOOD       LGT RAIN  48  47  96 W18G25    29.60F
$$

ABBREVIATIONS USED IN REMARKS
   TC - TEMPERATURE IN CELSIUS
  WCI - WIND CHILL INDEX
   HX - HEAT INDEX
  VSB - VISIBILITY





USA.gov is the U.S. government's official web portal to all federal, state and local government web resources and services.